FW6620 Weather Reports


time (UTC)temp
C
wind
direction
speed
KPH
gust
KPH
rain 1hr
cm
rain 24hr
cm
rain mn
cm
humidity
%
barometer
mb
20260508025048 17 0 0.0 0.0 0.00 0.00 0.00 76 1015.8
20260508024615 17 0 0.0 0.0 0.00 0.00 0.00 76 1015.9
20260508024048 17 0 0.0 0.0 0.00 0.00 0.00 77 1016.0
20260508023548 17 0 0.0 1.6 0.00 0.00 0.00 76 1015.7
20260508023049 17 0 0.0 1.6 0.00 0.00 0.00 75 1015.1
20260508022547 17 0 0.0 1.6 0.00 0.00 0.00 75 1014.4
20260508022048 17 0 0.0 1.6 0.00 0.00 0.00 75 1014.4
20260508021557 17 0 0.0 1.6 0.00 0.00 0.00 74 1014.3
20260508021048 18 0 0.0 1.6 0.00 0.00 0.00 75 1014.5
20260508020548 18 0 0.0 1.6 0.00 0.00 0.00 73 1014.4
20260508020054 18 0 0.0 1.6 0.00 0.00 0.00 73 1014.3
20260508015550 18 0 0.0 3.2 0.00 0.00 0.00 73 1014.4
20260508015048 18 0 0.0 3.2 0.00 0.00 0.00 72 1014.2
20260508014553 18 47 0.0 1.6 0.00 0.00 0.00 72 1014.0
20260508014048 18 0 0.0 1.6 0.00 0.00 0.00 71 1014.2
20260508013550 18 0 0.0 4.8 0.00 0.00 0.00 71 1014.4
20260508013051 18 0 0.0 3.2 0.00 0.00 0.00 70 1014.4
20260508012548 18 0 0.0 3.2 0.00 0.00 0.00 71 1014.5
20260508012048 18 0 0.0 0.0 0.00 0.00 0.00 70 1014.7
20260508011556 18 0 0.0 1.6 0.00 0.00 0.00 71 1014.9
20260508011047 18 0 0.0 3.2 0.00 0.00 0.00 70 1015.1
20260508010547 18 0 0.0 3.2 0.00 0.00 0.00 70 1014.8
20260508010057 18 46 0.0 3.2 0.00 0.00 0.00 68 1014.5
20260508005551 18 0 0.0 3.2 0.00 0.00 0.00 68 1014.2
20260508005047 18 0 0.0 3.2 0.00 0.00 0.00 68 1014.9
20260508004600 19 0 0.0 3.2 0.00 0.00 0.00 67 1014.4
20260508004048 19 0 0.0 3.2 0.00 0.00 0.00 67 1015.1
20260508003547 19 44 0.0 3.2 0.00 0.00 0.00 67 1015.1
20260508003055 19 44 0.0 1.6 0.00 0.00 0.00 69 1015.1
20260508002548 19 45 0.0 3.2 0.00 0.00 0.00 68 1015.1
20260508002047 19 0 0.0 3.2 0.00 0.00 0.00 69 1015.6
20260508001551 19 0 0.0 3.2 0.00 0.00 0.00 67 1015.5
20260508001047 20 45 0.0 3.2 0.00 0.00 0.00 69 1015.4
20260508000547 20 0 0.0 0.0 0.00 0.00 0.00 69 1015.4
20260508000049 20 0 0.0 0.0 0.00 0.00 0.00 69 1015.7
20260507235547 20 0 0.0 3.2 0.00 0.00 0.00 68 1016.0
20260507235048 20 0 0.0 3.2 0.00 0.00 0.00 68 1015.8
20260507234547 20 0 0.0 3.2 0.00 0.00 0.00 66 1016.0
20260507234048 20 0 0.0 3.2 0.00 0.00 0.00 68 1016.1
20260507233548 20 0 0.0 3.2 0.00 0.00 0.00 67 1016.0
20260507233053 20 0 0.0 3.2 0.00 0.00 0.00 67 1016.0
20260507232548 20 0 0.0 3.2 0.00 0.00 0.00 68 1016.0
20260507232048 20 0 0.0 3.2 0.00 0.00 0.00 68 1015.8
20260507231548 20 0 0.0 3.2 0.00 0.00 0.00 70 1016.1
20260507231047 20 0 0.0 1.6 0.00 0.00 0.00 68 1015.8
20260507230550 20 0 0.0 3.2 0.00 0.00 0.00 67 1015.8
20260507230106 20 0 0.0 3.2 0.00 0.00 0.00 70 1016.0
20260507225547 20 45 0.0 1.6 0.00 0.00 0.00 70 1016.1
20260507225047 20 0 0.0 1.6 0.00 0.00 0.00 69 1016.2
20260507224553 20 0 0.0 1.6 0.00 0.00 0.00 68 1016.1
20260507224049 20 0 0.0 3.2 0.00 0.00 0.00 69 1016.2
20260507223547 20 0 0.0 3.2 0.00 0.00 0.00 69 1016.4
20260507223050 20 0 0.0 1.6 0.00 0.00 0.00 71 1016.3
20260507222547 20 0 0.0 1.6 0.00 0.00 0.00 69 1016.7
20260507222048 20 0 0.0 1.6 0.00 0.00 0.00 70 1016.5
20260507221551 20 0 0.0 3.2 0.00 0.00 0.00 68 1016.6
20260507221046 20 0 0.0 3.2 0.00 0.00 0.00 69 1016.5
20260507220546 20 45 0.0 3.2 0.00 0.00 0.00 68 1016.5
20260507220054 20 0 0.0 3.2 0.00 0.00 0.00 67 1016.7
20260507215547 20 44 0.0 3.2 0.00 0.00 0.00 68 1016.4
20260507215047 20 0 0.0 3.2 0.00 0.00 0.00 69 1016.4
20260507214552 20 32 0.0 1.6 0.00 0.00 0.00 68 1016.5
20260507214047 20 0 0.0 1.6 0.00 0.00 0.00 68 1016.5
20260507213547 20 0 0.0 3.2 0.00 0.00 0.00 70 1016.7
20260507213052 20 0 0.0 3.2 0.00 0.00 0.00 66 1016.4
20260507212547 20 32 0.0 3.2 0.00 0.00 0.00 69 1016.3
20260507212048 20 0 0.0 6.4 0.00 0.00 0.00 68 1016.3
20260507211556 20 0 0.0 6.4 0.00 0.00 0.00 70 1016.6
20260507211048 19 32 0.0 3.2 0.00 0.00 0.00 72 1016.6
20260507210550 19 0 0.0 3.2 0.00 0.00 0.00 70 1016.6
20260507205547 18 0 0.0 4.8 0.00 0.00 0.00 71 1016.4
20260507205047 18 0 0.0 4.8 0.00 0.00 0.00 68 1016.4
20260507204551 18 165 1.6 4.8 0.00 0.00 0.00 69 1016.7
20260507204047 18 0 0.0 4.8 0.00 0.00 0.00 69 1016.7
20260507203547 19 164 0.0 3.2 0.00 0.00 0.00 68 1017.3
20260507203113 18 165 0.0 3.2 0.00 0.00 0.00 70 1017.6
20260507202547 18 0 0.0 4.8 0.00 0.00 0.00 71 1017.5
20260507202050 18 165 0.0 4.8 0.00 0.00 0.00 69 1017.6
20260507201550 19 165 0.0 6.4 0.00 0.00 0.00 69 1017.4
20260507201048 19 0 1.6 6.4 0.00 0.00 0.00 68 1017.4
20260507200547 19 170 0.0 4.8 0.00 0.00 0.00 69 1017.6
20260507200053 19 0 0.0 4.8 0.00 0.00 0.00 70 1017.3
20260507195548 19 126 0.0 3.2 0.00 0.00 0.00 73 1017.3
20260507195050 19 0 0.0 4.8 0.00 0.00 0.00 72 1017.9
20260507194602 18 0 0.0 4.8 0.00 0.00 0.00 71 1017.9
20260507194047 18 0 0.0 4.8 0.00 0.00 0.00 72 1017.6
20260507193547 18 0 0.0 4.8 0.00 0.00 0.00 72 1017.5
20260507193058 18 136 0.0 3.2 0.00 0.00 0.00 72 1017.5
20260507192546 18 136 0.0 3.2 0.00 0.00 0.00 73 1018.0
20260507192047 18 0 0.0 3.2 0.00 0.00 0.00 74 1018.0
20260507191551 18 0 0.0 3.2 0.00 0.00 0.00 74 1017.9
20260507191046 18 0 0.0 3.2 0.00 0.00 0.00 74 1018.2
20260507190549 18 0 0.0 3.2 0.00 0.00 0.00 74 1018.1
20260507190057 18 0 0.0 3.2 0.00 0.00 0.00 74 1017.9
20260507185546 18 136 0.0 3.2 0.00 0.00 0.00 75 1017.8
20260507185046 18 0 0.0 4.8 0.00 0.00 0.00 75 1018.1
20260507184550 18 0 0.0 4.8 0.00 0.00 0.00 73 1018.2
20260507184046 18 0 0.0 4.8 0.00 0.00 0.00 73 1018.3
20260507183548 18 0 0.0 3.2 0.00 0.00 0.00 73 1018.5
20260507183050 18 135 0.0 4.8 0.00 0.00 0.00 74 1018.5
20260507182549 18 139 1.6 4.8 0.00 0.00 0.00 74 1018.7
20260507182046 18 0 0.0 4.8 0.00 0.00 0.00 76 1018.4
20260507181549 17 0 0.0 4.8 0.00 0.00 0.00 78 1018.6
20260507181047 17 0 0.0 4.8 0.00 0.00 0.00 76 1018.4
20260507180547 17 134 0.0 4.8 0.00 0.00 0.00 76 1018.2
20260507180048 17 55 0.0 3.2 0.00 0.00 0.00 78 1018.3
20260507175547 17 0 0.0 1.6 0.00 0.00 0.00 77 1018.3
20260507175048 17 0 0.0 6.4 0.00 0.00 0.00 79 1018.2
20260507174602 17 0 0.0 6.4 0.00 0.00 0.00 78 1018.1
20260507174047 17 0 0.0 6.4 0.00 0.00 0.00 78 1018.2
20260507173546 16 0 0.0 4.8 0.00 0.00 0.00 78 1018.5
20260507173128 16 0 0.0 3.2 0.00 0.00 0.00 79 1018.5
20260507172546 16 0 0.0 4.8 0.00 0.00 0.00 79 1018.5
20260507172048 16 0 0.0 4.8 0.00 0.00 0.00 79 1018.4
20260507171559 16 0 0.0 4.8 0.00 0.00 0.00 79 1018.6
20260507171047 16 0 0.0 4.8 0.00 0.00 0.00 79 1018.4
20260507170547 16 122 0.0 4.8 0.00 0.00 0.00 79 1018.4
20260507170054 16 0 0.0 4.8 0.00 0.00 0.00 79 1018.8
20260507165547 16 0 0.0 4.8 0.00 0.00 0.00 80 1019.1
20260507165047 16 0 0.0 3.2 0.00 0.00 0.00 80 1018.9
20260507164557 16 125 0.0 3.2 0.00 0.00 0.00 81 1018.9
20260507164047 16 0 0.0 3.2 0.00 0.00 0.00 81 1018.6
20260507163546 16 0 0.0 4.8 0.00 0.00 0.00 81 1018.9
20260507163051 15 0 0.0 4.8 0.00 0.00 0.00 81 1019.0
20260507162550 15 0 0.0 3.2 0.00 0.00 0.00 81 1019.0
20260507162047 16 0 0.0 3.2 0.00 0.00 0.00 81 1019.0
20260507161602 16 0 0.0 6.4 0.00 0.00 0.00 81 1019.5
20260507161046 16 125 1.6 6.4 0.00 0.00 0.00 83 1019.8
20260507160547 16 152 0.0 3.2 0.00 0.00 0.00 83 1019.7
20260507160101 16 0 0.0 3.2 0.00 0.00 0.00 83 1019.4
20260507155546 16 53 0.0 3.2 0.00 0.00 0.00 83 1019.2
20260507155045 16 0 0.0 3.2 0.00 0.00 0.00 84 1019.2
20260507154556 16 0 0.0 6.4 0.00 0.00 0.00 84 1019.4
20260507154047 16 0 0.0 4.8 0.00 0.00 0.00 84 1019.4
20260507153547 16 0 0.0 3.2 0.00 0.00 0.00 85 1019.5
20260507153057 16 146 0.0 1.6 0.00 0.00 0.00 85 1019.6
20260507152548 16 0 0.0 3.2 0.00 0.00 0.00 85 1019.3
20260507152048 15 0 0.0 3.2 0.00 0.00 0.00 85 1019.4
20260507151552 15 146 0.0 3.2 0.00 0.00 0.00 85 1019.5
20260507151047 15 0 0.0 3.2 0.00 0.00 0.00 85 1019.5
20260507150547 15 0 0.0 3.2 0.00 0.00 0.00 86 1019.2
20260507150054 15 0 0.0 3.2 0.00 0.00 0.00 86 1019.2
20260507145547 15 0 0.0 1.6 0.00 0.00 0.00 86 1019.3
20260507145047 15 0 0.0 1.6 0.00 0.00 0.00 86 1019.3
20260507144600 15 0 0.0 3.2 0.00 0.00 0.00 86 1019.4
20260507144047 15 0 0.0 3.2 0.00 0.00 0.00 85 1019.5
20260507143546 15 153 0.0 3.2 0.00 0.00 0.00 86 1019.6
20260507143100 15 0 0.0 3.2 0.00 0.00 0.00 86 1019.6
20260507142547 15 0 0.0 3.2 0.00 0.00 0.00 86 1019.7
20260507142049 15 0 0.0 3.2 0.00 0.00 0.00 86 1019.3
20260507141601 15 0 0.0 1.6 0.00 0.00 0.00 86 1018.9
20260507141047 15 0 0.0 4.8 0.00 0.00 0.00 87 1018.8
20260507140547 15 0 0.0 4.8 0.00 0.00 0.00 87 1019.0
20260507140050 15 0 0.0 3.2 0.00 0.00 0.00 86 1019.0
20260507135546 15 0 0.0 3.2 0.00 0.00 0.00 87 1019.2
20260507135048 15 0 0.0 4.8 0.00 0.00 0.00 86 1019.1
20260507134553 15 0 0.0 4.8 0.00 0.00 0.00 86 1018.8
20260507134047 15 154 1.6 4.8 0.00 0.00 0.00 86 1018.6
20260507133547 15 0 0.0 4.8 0.00 0.00 0.00 87 1018.5
20260507133134 15 108 0.0 4.8 0.00 0.00 0.00 87 1018.5
20260507132546 15 108 0.0 3.2 0.00 0.00 0.00 87 1018.4
20260507132046 15 0 0.0 3.2 0.00 0.00 0.00 87 1018.3
20260507131554 15 0 0.0 3.2 0.00 0.00 0.00 87 1018.4
20260507131047 15 108 0.0 4.8 0.00 0.00 0.00 87 1018.4
20260507130549 15 108 0.0 4.8 0.00 0.00 0.00 87 1018.5
20260507125549 15 0 0.0 4.8 0.00 0.00 0.00 87 1018.7
20260507125046 15 0 0.0 4.8 0.00 0.00 0.00 87 1018.6
20260507124555 15 0 0.0 4.8 0.00 0.00 0.00 86 1018.5
20260507124048 15 56 0.0 4.8 0.00 0.00 0.00 87 1018.4
20260507123548 15 157 0.0 4.8 0.00 0.00 0.00 86 1018.4
20260507123052 15 0 1.6 4.8 0.00 0.00 0.00 86 1018.2
20260507122548 15 0 0.0 3.2 0.00 0.00 0.00 86 1018.6
20260507122048 15 0 0.0 3.2 0.00 0.00 0.00 87 1018.4
20260507121552 15 0 0.0 3.2 0.00 0.00 0.00 86 1018.2
20260507121047 15 0 0.0 4.8 0.00 0.00 0.00 86 1017.8
20260507120547 15 137 0.0 4.8 0.00 0.00 0.00 86 1017.7
20260507120052 15 137 0.0 4.8 0.00 0.00 0.00 86 1017.7
20260507115547 15 0 0.0 3.2 0.00 0.00 0.00 86 1017.5
20260507115047 15 137 0.0 3.2 0.00 0.00 0.00 86 1017.7
20260507114600 15 0 0.0 3.2 0.00 0.00 0.00 87 1018.0
20260507114047 15 0 0.0 3.2 0.00 0.00 0.00 86 1018.0
20260507113547 15 0 0.0 3.2 0.00 0.00 0.00 86 1017.9
20260507113055 15 0 0.0 3.2 0.00 0.00 0.00 86 1017.6
20260507112547 15 137 0.0 4.8 0.00 0.00 0.00 86 1017.7
20260507112050 15 0 0.0 6.4 0.00 0.00 0.00 86 1017.6
20260507111553 15 0 0.0 6.4 0.00 0.00 0.00 86 1017.5
20260507111048 15 0 1.6 4.8 0.00 0.00 0.00 86 1017.5
20260507110548 15 0 0.0 4.8 0.00 0.00 0.00 86 1017.6
20260507110057 15 0 0.0 4.8 0.00 0.00 0.00 86 1017.4
20260507105545 15 0 0.0 3.2 0.00 0.00 0.00 86 1017.4
20260507105049 15 0 0.0 3.2 0.00 0.00 0.00 86 1017.3
20260507104551 15 0 0.0 3.2 0.00 0.00 0.00 86 1017.7
20260507104046 15 0 0.0 3.2 0.00 0.00 0.00 86 1017.7
20260507103545 15 146 0.0 3.2 0.00 0.00 0.00 86 1017.7
20260507103056 15 146 0.0 3.2 0.00 0.00 0.00 86 1017.6
20260507102547 15 159 0.0 1.6 0.00 0.00 0.00 86 1017.2
20260507102047 16 0 0.0 3.2 0.00 0.00 0.00 86 1016.8
20260507101555 16 0 0.0 8.0 0.00 0.00 0.00 85 1017.2
20260507101050 16 0 0.0 8.0 0.00 0.00 0.00 86 1017.2
20260507100551 16 0 1.6 6.4 0.00 0.00 0.00 85 1017.1
20260507100053 16 0 0.0 3.2 0.00 0.00 0.00 85 1017.1
20260507095547 16 97 0.0 3.2 0.00 0.00 0.00 85 1016.7
20260507095046 16 0 0.0 3.2 0.00 0.00 0.00 85 1016.9
20260507094558 16 0 0.0 3.2 0.00 0.00 0.00 85 1017.0
20260507094045 16 0 0.0 3.2 0.00 0.00 0.00 84 1016.7
20260507093545 16 97 0.0 3.2 0.00 0.00 0.00 85 1016.8
20260507093050 16 97 0.0 3.2 0.00 0.00 0.00 85 1016.7
20260507092545 16 0 0.0 3.2 0.00 0.00 0.00 84 1016.6
20260507092045 16 0 0.0 3.2 0.00 0.00 0.00 84 1016.7
20260507091549 16 0 0.0 3.2 0.00 0.00 0.00 84 1016.9
20260507091047 16 0 0.0 1.6 0.00 0.00 0.00 84 1017.0
20260507090547 16 0 0.0 1.6 0.00 0.00 0.00 84 1016.8
20260507090051 16 0 0.0 1.6 0.00 0.00 0.00 85 1016.6
20260507085546 16 0 0.0 1.6 0.00 0.00 0.00 84 1016.5
20260507085047 16 0 0.0 1.6 0.00 0.00 0.00 84 1016.5
20260507084548 16 0 0.0 1.6 0.00 0.00 0.00 84 1016.4
20260507084046 16 0 0.0 0.0 0.00 0.00 0.00 84 1016.1
20260507083546 16 0 0.0 3.2 0.00 0.00 0.00 84 1016.3
20260507083048 16 0 0.0 3.2 0.00 0.00 0.00 84 1016.4
20260507082545 16 97 0.0 1.6 0.00 0.00 0.00 83 1016.4
20260507082047 16 0 0.0 1.6 0.00 0.00 0.00 83 1016.5
20260507081554 16 0 0.0 1.6 0.00 0.00 0.00 83 1016.1
20260507081047 16 0 0.0 1.6 0.00 0.00 0.00 84 1015.8
20260507080547 16 0 0.0 1.6 0.00 0.00 0.00 83 1016.1
20260507080101 16 0 0.0 3.2 0.00 0.00 0.00 83 1015.8
20260507075547 16 0 0.0 3.2 0.00 0.00 0.00 83 1015.9
20260507075047 16 0 0.0 3.2 0.00 0.00 0.00 83 1016.2
20260507074558 16 0 0.0 4.8 0.00 0.00 0.00 82 1015.7
20260507074046 16 97 0.0 4.8 0.00 0.00 0.00 82 1015.7
20260507073548 16 97 0.0 3.2 0.00 0.00 0.00 82 1015.7
20260507073101 16 0 0.0 3.2 0.00 0.00 0.00 82 1015.8
20260507072547 16 0 0.0 1.6 0.00 0.00 0.00 82 1016.1
20260507072049 16 0 0.0 1.6 0.00 0.00 0.00 82 1015.9
20260507071553 16 97 0.0 1.6 0.00 0.00 0.00 82 1016.0
20260507071046 16 0 0.0 3.2 0.00 0.00 0.00 81 1015.9
20260507070546 16 0 0.0 3.2 0.00 0.00 0.00 81 1015.8
20260507070058 16 0 0.0 3.2 0.00 0.00 0.00 81 1016.0
20260507065545 16 0 0.0 3.2 0.00 0.00 0.00 81 1016.3
20260507065045 16 0 0.0 4.8 0.00 0.00 0.00 81 1016.1
20260507064555 16 0 0.0 4.8 0.00 0.00 0.00 81 1016.1
20260507064047 16 97 0.0 3.2 0.00 0.00 0.00 81 1015.9
20260507063544 16 116 0.0 4.8 0.00 0.00 0.00 81 1015.9
20260507063054 16 0 0.0 4.8 0.00 0.00 0.00 81 1015.6
20260507062547 16 0 0.0 3.2 0.00 0.00 0.00 81 1015.4
20260507062047 16 0 0.0 3.2 0.00 0.00 0.00 81 1015.4
20260507061552 17 0 0.0 3.2 0.00 0.00 0.00 81 1015.9
20260507061047 17 0 0.0 1.6 0.00 0.00 0.00 81 1016.1
20260507060545 17 0 0.0 4.8 0.00 0.00 0.00 81 1016.0
20260507060053 17 0 0.0 4.8 0.00 0.00 0.00 81 1015.7
20260507055546 17 0 0.0 4.8 0.00 0.00 0.00 81 1015.6
20260507055045 17 0 0.0 4.8 0.00 0.00 0.00 81 1015.6
20260507054551 17 0 0.0 1.6 0.00 0.00 0.00 81 1015.9
20260507054045 17 0 0.0 3.2 0.00 0.00 0.00 81 1016.0
20260507053545 17 0 0.0 3.2 0.00 0.00 0.00 81 1016.0
20260507053058 17 0 0.0 3.2 0.00 0.00 0.00 81 1015.9
20260507052545 17 0 0.0 3.2 0.00 0.00 0.00 82 1015.8
20260507052047 17 0 0.0 3.2 0.00 0.00 0.00 81 1015.7
20260507051548 17 0 0.0 3.2 0.00 0.00 0.00 81 1015.7
20260507051046 17 0 0.0 3.2 0.00 0.00 0.00 81 1015.8
20260507050546 17 0 0.0 3.2 0.00 0.00 0.00 82 1015.6
20260507050050 17 0 0.0 4.8 0.00 0.00 0.00 81 1015.4
20260507045547 17 0 0.0 4.8 0.00 0.00 0.00 82 1015.6
20260507045047 17 0 0.0 3.2 0.00 0.00 0.00 82 1015.8
20260507044559 17 0 0.0 3.2 0.00 0.00 0.00 82 1015.7
20260507044045 17 0 0.0 3.2 0.00 0.00 0.00 82 1015.8
20260507043545 17 0 0.0 3.2 0.00 0.00 0.00 82 1015.7
20260507043051 17 91 0.0 1.6 0.00 0.00 0.00 82 1016.0
20260507042546 17 0 0.0 1.6 0.00 0.00 0.00 83 1015.9
20260507042046 17 0 0.0 1.6 0.00 0.00 0.00 82 1015.9
20260507041552 17 91 0.0 1.6 0.00 0.00 0.00 82 1015.5
20260507041047 17 0 0.0 3.2 0.00 0.00 0.00 82 1015.4
20260507040547 17 0 0.0 3.2 0.00 0.00 0.00 82 1015.5
20260507040058 17 0 0.0 3.2 0.00 0.00 0.00 82 1015.6
20260507035546 17 0 0.0 3.2 0.00 0.00 0.00 82 1015.5
20260507035047 17 0 0.0 1.6 0.00 0.00 0.00 82 1015.5
20260507034553 17 0 0.0 1.6 0.00 0.00 0.00 82 1015.7
20260507034048 17 0 0.0 1.6 0.00 0.00 0.00 81 1015.6
20260507033546 17 0 0.0 1.6 0.00 0.00 0.00 82 1015.6
20260507033102 17 0 0.0 3.2 0.00 0.00 0.00 81 1015.7
20260507032548 17 0 0.0 3.2 0.00 0.00 0.00 81 1015.4
20260507032046 17 91 0.0 3.2 0.00 0.00 0.00 81 1015.1
20260507031600 17 91 0.0 3.2 0.00 0.00 0.00 81 1015.2
20260507031047 17 91 0.0 3.2 0.00 0.00 0.00 81 1015.4
20260507030547 17 0 0.0 3.2 0.00 0.00 0.00 82 1015.6
20260507030107 17 0 0.0 3.2 0.00 0.00 0.00 82 1015.5
20260507025546 17 0 0.0 3.2 0.00 0.00 0.00 82 1015.1